{"data":{"norad_id":58418,"epoch":"2026-05-24T23:23:08.630016Z","epoch_age_seconds":84082,"freshness":"FRESH","line1":"1 58418U 23180S   26144.97440544 -.00015370  00000+0 -55046-3 0  9994","line2":"2 58418  43.0024 341.6585 0000969 271.5770  88.4971 15.27563714139186","mean_motion":15.27563714,"eccentricity":9.69e-5,"inclination_deg":43.0024,"raan_deg":341.6585,"arg_perigee_deg":271.577,"mean_anomaly_deg":88.4971,"bstar":-0.00055046,"rev_number":13918,"period_min":94.267753731155,"perigee_km":482.43300895759,"apogee_km":483.76271627396,"semimajor_km":6861.2348626158,"source":"CELESTRAK","updated_at":"2026-05-25T13:38:18.619948Z"}}